Home > Weather > Busan > Past weeks

Flag for South Korea Past Weather in Busan, South Korea — Yesterday and Last 2 Weeks

Now
81 °F

Partly sunny.


Feels Like: 81 °F
Forecast: 69 / 77 °F
Wind: 20 mph from Northeast

Location: Pusan / Kimhae International Airport

Current Time: Aug 27, 2016 at 3:51:10 PM

Latest Report: Aug 27, 2016 at 3:00 PM


Visibility: N/A

Pressure: 29.74 "Hg

Humidity: 45%

Dew Point: 57 °F

Location of BusanLocation

Past Weather in Busan — Graph

°F

Busan Temperature Yesterday

Maximum temperature yesterday: 81 °F (at 12:00 AM)
Minimum temperature yesterday: 70 °F (at 4:45 PM)
Average temperature yesterday: 75 °F

High & Low Weather Summary for the Past Weeks

 TemperatureHumidityPressure
High97 °F (Aug 14, 1:00 PM)94% (Aug 13, 5:00 AM)29.83 "Hg (Aug 13, 5:00 AM)
Low70 °F (Aug 26, 4:45 PM)45% (Aug 27, 1:00 PM)29.53 "Hg (Aug 15, 1:00 PM)
Average83 °F72%29.68 "Hg
* Reported Aug 12 2:00 PM — Aug 27 2:00 PM, Busan, Weather by CustomWeather, © 2016

Note: Actual official high and low records may vary slightly from our data, if they occured in-between our weather recording intervals... More about our weather records

Advertising

Busan Weather History for the Previous 24 Hours

Scroll right to see more
 ConditionsComfort  
Time TempWeatherWind HumidityBarometerVisibility
2:00 PM
Sat, Aug 27
82 °FBroken clouds.18 mph48%29.74 "HgN/A
1:00 PM82 °FBroken clouds.20 mph45%29.77 "HgN/A
12:00 PM81 °FScattered clouds.20 mph48%29.77 "HgN/A
11:00 AM79 °FScattered clouds.20 mph54%29.80 "HgN/A
10:00 AM77 °FPartly sunny.18 mph57%29.80 "HgN/A
9:00 AM75 °FPartly sunny.14 mph57%29.83 "HgN/A
8:00 AM73 °FBroken clouds.14 mph61%29.83 "HgN/A
7:00 AM73 °FPartly sunny.12 mph61%29.83 "HgN/A
6:00 AM72 °FSunny.10 mph69%29.83 "Hg10 mi
5:00 AM72 °FClear.9 mph69%29.83 "Hg10 mi
4:00 AM70 °FPassing clouds.12 mph78%29.80 "HgN/A
3:00 AM72 °FPassing clouds.14 mph69%29.83 "HgN/A
2:00 AM73 °FPassing clouds.14 mph65%29.83 "HgN/A
1:00 AM73 °FPartly cloudy.12 mph65%29.83 "HgN/A
12:00 AM73 °FPassing clouds.12 mph65%29.83 "HgN/A
11:00 PM
Fri, Aug 26
73 °FPassing clouds.14 mph69%29.83 "HgN/A
10:00 PM72 °FLight rain. Passing clouds.10 mph78%29.83 "HgN/A
9:00 PM72 °FLight rain. Mostly cloudy.12 mph78%29.83 "HgN/A
8:00 PM70 °FMostly cloudy.15 mph83%29.83 "HgN/A
7:00 PM70 °FLight rain. Mostly cloudy.16 mph83%29.80 "HgN/A
6:00 PM70 °FCloudy.14 mph88%29.80 "HgN/A
5:00 PM70 °FLight rain. Mostly cloudy.13 mph83%29.80 "Hg6 mi
4:45 PM70 °FLight rain. Mostly cloudy.13 mph83%29.80 "Hg6 mi
4:00 PM72 °FMostly cloudy.17 mph73%29.80 "HgN/A
3:00 PM72 °FMostly cloudy.17 mph78%29.77 "HgN/A
Weather by CustomWeather, © 2016

See weather overviewHow to use our weather pages